Terminal Aerodrome Forecast
Issued by NWS

Home | Current Version | Previous Version | Text Only | Print | Product List | Glossary On
Versions: 1 2 3 4 5 6 7 8 9 10 11 12 13 14 15 16 17 18 19 20 21 22 23 24 25 26 27 28 29 30 31 32 33 34 35 36 37 38 39 40 41 42 43 44 45 46 47 48 49 50
000
FTUS44 KHGX 061132
TAFSGR
TAF
KSGR 061132Z 0612/0712 16008KT P6SM FEW020 BKN030
     FM061300 17011KT P6SM SCT035
     FM061700 16012G18KT P6SM SCT040 SCT250
     FM070100 16008KT P6SM SCT015 SCT250
     FM070700 16006KT P6SM BKN028
     FM071100 17009KT P6SM SCT025=

USA.gov is the U.S. government's official web portal to all federal, state and local government web resources and services.